Tracking 22079 objects as of 5-Dec-2020
HD Live streaming from Space Station
objects crossing your sky now

OPS 9381 (GGTS)

Track OPS 9381 (GGTS) now!
OPS 9381 (GGTS) is classified as:


NORAD ID: 2207
Int'l Code: 1966-053A
Perigee: 33,647.4 km
Apogee: 33,869.8 km
Inclination: 5.0 °
Period: 1,333.4 minutes
Semi major axis: 40129 km
RCS: 0.8912 m2 (medium)
Launch date: June 16, 1966
Source: United States (US)
Launch site: AIR FORCE EASTERN TEST RANGE (AFETR)
aabbcc
Your satellite tracking list
Your tracking list is empty




NASA's NSSDC Master Catalog

Two Line Element Set (TLE):
1 02207U 66053A   20339.76918521 -.00000109  00000-0  00000-0 0  9998
2 02207   4.9704  57.2009 0027712 188.7089 195.3605  1.07995609214147
Source of the keplerian elements: AFSPC